METAR UND TAF INFORMATION
ESNQ 180520Z AUTO 32005KT 290V360 9999 NCD 08/04 Q1017

 FLUGHAFENKARTE

 RUNWAY INFORMATION
Runway 03 Runway length 8209 ft Runway width 148 ft
Runway elevation 1508 ft Runway displaced threshold 0 ft Runway heading 34
Runway 21 Runway length 8209 ft Runway width 148 ft
Runway elevation 1432 ft Runway displaced threshold 0 ft Runway heading 214

 AIRPORT FREQUENCIES
Type TWR Name TWR Frequency 130.15 MHZ

 AIRPORT NEAR NAVIGATION AIDS
Type VOR-DME Name Kiruna Frequency 115200 KHZ
Type NDB Name Kiruna Frequency 360 KHZ